Location: Nitra
(0.0000°N, 18.0833°E)
Time: 18:51:29
(UTC+02:00)

A-11 Canister half - Pass Details

Date: 03 April 2023
Orbit: 1526 x 1682 km, 47.3° (Epoch: 08 June)

Event Time Altitude Azimuth Distance (km) Brightness Sun altitude
Rises 13:08:11 0° 249° (WSW) 4,881 11.7 83.2°
Reaches altitude 10° 13:12:05 10° 261° (W) 3,911 11.3 82.5°
Maximum altitude 13:19:50 25° 312° (NW) 2,897 11.0 81.1°
Drops below altitude 10° 13:27:41 10° 4° (N) 3,932 11.4 79.4°
Sets 13:31:41 0° 17° (NNE) 4,913 11.7 78.5°
